OPS 0100 DEB *, 4843

Orbit data source: Space-Track

OPS 0100 DEB *, 4843 is space debris in LEO originally from a launch on Fri, 14 Apr 1967 UTC launched from the Air Force Western Test Range (AFWTR). Debris objects in space refer to the collection of defunct objects orbiting the Earth. Examples of debris include non-operational satellites, rocket bodies, and fragments generated from explosions, collisions, or faulty payload assembly.

Loading next visibility...
Identifier
4843, 1967-034E
Orbit
LEO
Country
Flag of USUS
Related business
Manufacturer
Unknown
Mission
Spacecraft
Bus & Motor
Unknown
Mass
Unknown
Launch date (UTC)
1967-04-14 (58 years ago)
Launch vehicle
Unknown
Launch site
Air Force Western Test Range (AFWTR)
Object type
Payload
Rocket body
Debris
Shape & HBR
Unknown
Radar Cross Section
Small (<0.1 m²)

Expand to show TLE details & history
Last TLE update: 2 days ago

TLE from 2 days ago
0 OPS 0100 DEB *
1 04843U 67034E   25259.11386391  .00000138  00000-0  19555-3 0  9994
2 04843  90.3724 131.0828 0026385 205.0619 310.0005 13.52569435236593
Epoch: 2025-09-16T02:43Z
TLE epoch observation values (Epoch: 2025-09-16T02:43:57.841Z)
Latitude
25.19609°
Longitude
-85.04272°
Altitude
1,053.337 km
Speed
7.334 km/s
True Right ascension
20h 45m 01s
True Declination
25° 04' 09"
Sunlit
Object was in full shadow at epoch
Visualization orbit readout
Latitude
Unknown
Longitude
Unknown
Altitude
Unknown
Speed
Unknown
Apparent Right ascension
Unknown
Apparent Declination
Unknown
Sunlit
N/A
Visualization observer readout
Local Sidereal Time
03:38:15
Azimuth
Unknown
Elevation
Unknown
Doppler factor
Unknown
Orbital elements
Apogee altitude
1,079.492 km
Perigee altitude
1,040.241 km
Semi-major axis
7,438.003 km
Eccentricity
0.00264
Inclination
90.3724°
RAAN
131.0828°
Arg. of periapsis
205.0619°
True anomaly
309.7684°
Mean anomaly
310.0005°
Eccentric anomaly
309.8845°
Mean motion
3.38344 °/min
Orbital period
106.4 mins
BSTAR
0.00019555
Loading maneuver chart data...
Computing Atmospheric mass density...
Loading historical data...
Loading historical data...
Loading historical data...
Loading historical data...
Loading historical data...
Loading historical data...
Loading historical data...

Documentation

Showing up to 5 results
|